Location: Unspecified
(48.7670°N, 0.0000°E)
Time: 06:53:13
(UTC+00:00)

Altair - Pass Details

Date: 04 October 2020
Orbit: 1502 x 1682 km, 47.2° (Epoch: 20 October)

Event Time Altitude Azimuth Distance (km) Brightness Sun altitude
Rises 18:00:19 0° 290° (WNW) 4,926 11.7 -5.5°
Reaches altitude 10° 18:03:45 10° 283° (WNW) 3,944 11.3 -6.1°
Maximum altitude 18:12:45 38° 221° (SW) 2,372 8.9 -7.6°
Drops below altitude 10° 18:21:41 10° 158° (SSE) 3,905 9.4 -9.0°
Sets 18:25:05 0° 150° (SSE) 4,872 9.8 -9.6°
